Regional Weather Roundup
Issued by NWS Goodland, KS

Home | Current Version | Previous Version | Text Only | Print | Product List | Glossary Off
Versions: 1 2 3 4 5 6 7 8 9 10 11 12 13 14 15 16 17 18 19 20 21 22 23 24 25 26 27 28 29 30 31 32 33 34 35 36 37 38 39 40 41 42 43 44 45 46 47 48 49 50

000
ASUS43 KGLD 120008
RWRGLD

GOODLAND FORECAST AREA HOURLY WEATHER ROUNDUP
NATIONAL WEATHER SERVICE GOODLAND KS
600 PM MDT FRI JUL 11 2014

...OFFICIAL OBSERVATIONS...

CITY           SKY/WX    TMP DP  RH WIND       PRES   REMARKS
GOODLAND KS    SUNNY     94  49  21 S28G37    29.94S
HILL CITY KS   SUNNY     96  57  27 S18G30    29.91F
IMPERIAL NEB   SUNNY     88  68  51 NE17G25   29.94S
MCCOOK NEB     SUNNY     94  56  27 S13       29.88F
AKRON CO       SUNNY     88  60  38 S10       30.05R
BURLINGTON CO  SUNNY     91  52  26 S20G25    29.97S
LIMON CO       CLOUDY    84  58  40 N8        30.09S
$$

...UNOFFICIAL OBSERVATIONS...

CITY           SKY/WX    TMP DP  RH WIND       PRES   REMARKS
COLBY KS       SUNNY     95  57  28 SE22G28   29.94S
GOVE KS          N/A     94  32  11 CALM        N/A
NORTON KS      SUNNY     97  43  15 S22G28    29.90S
SHARON SPRINGS   N/A     96  51  21 S20G26      N/A
YUMA CO          N/A     89  65  44 NE14        N/A
$$



USA.gov is the U.S. government's official web portal to all federal, state and local government web resources and services.